Location: Boxdorfer School
(37.7703°N, 89.8001°W)
Time: 20:01:25
(UTC+00:00)

Daily predictions for brighter satellites

Satellite Brightness Start Highest point End
(mag) Time Altitude Azimuth Time Altitude Azimuth Time Altitude Azimuth
Lacrosse 5 rocket 1.2 12:00:48 10° NW 12:04:06 57° NE 12:07:19 10° SE
Lacrosse 4 Rocket 2.2 12:00:36 10° NNW 12:04:25 47° ENE 12:08:09 10° SE
Sich 1 Rocket 4.0 12:04:31 10° NNW 12:08:46 42° W 12:12:56 10° SSW
Hubble Space Telescope 3.0 12:06:23 10° SW 12:08:56 17° S 12:11:31 10° SE
Cosmos 968 Rocket 4.4 12:04:32 10° NW 12:08:58 28° W 12:13:21 10° SSW
Iridium 45 4.2 12:06:53 10° N 12:10:04 81° W 12:13:20 10° S
ATLAS 3B R/B 4.1 12:04:14 10° W 12:10:05 23° NW 12:16:08 10° NNE
Helios 1A Rocket 3.7 12:07:38 10° SSW 12:10:16 21° W 12:12:54 10° NW
CENTAUR R/B 3.7 12:02:21 10° NW 12:10:50 53° WSW 12:19:55 10° S
SMAP 3.6 12:07:04 10° NNE 12:11:43 67° ESE 12:16:20 10° S
COSMO-SKYMED 1 3.3 12:09:48 10° SSW 12:13:25 29° W 12:17:03 10° NW
Cosmos 1484 Rocket 3.2 12:10:56 10° N 12:14:06 33° WNW 12:17:15 10° SW
CZ-2D R/B 3.7 12:11:26 10° NNE 12:14:32 52° E 12:17:37 10° S
NOSS 2-2 (C) 4.1 12:11:50 10° NW 12:16:13 61° WSW 12:22:24 10° SSE
CZ-3 R/B 2.8 12:13:07 10° W 12:23:30 37° SSW 12:27:58 10° SE
Cosmos 407 Rocket 3.5 23:02:53 10° SSW 23:08:04 79° ESE 23:13:14 10° NNE
IGS 5A 3.3 23:05:24 10° SSE 23:09:21 80° ENE 23:13:20 10° N
CBERS-1 4.3 23:06:55 10° S 23:12:01 78° WSW 23:17:09 10° NNW
SMAP 3.2 23:08:14 10° SSE 23:12:46 54° ENE 23:17:18 10° N
YAOGAN 1 4.4 23:12:45 10° ENE 23:13:28 10° ENE 23:14:11 10° NE
Cosmos 44 Rocket 3.3 23:10:24 10° SSW 23:15:07 87° WNW 23:20:01 10° NNE
USA 215 3.7 23:10:59 10° ESE 23:17:03 43° NE 23:23:09 10° NW
OAO 2 Rocket 3.7 23:12:32 10° W 23:17:28 64° S 23:22:30 10° ESE
BREEZE-M DEB (TANK) 3.1 23:15:58 10° W 23:18:05 39° NNW 23:22:15 10° NE
Cosmos 1833 Rocket 3.2 23:14:26 10° NNW 23:20:02 66° WSW 23:25:36 10° S
SL-12 R/B(2) 4.5 23:14:41 10° SW 23:22:21 77° NW 23:31:40 10° NNE
RESURS DK-1 2.8 23:18:44 10° N 23:22:29 38° ENE 23:26:12 10° SE
SAR-Lupe-3 3.8 23:20:28 10° NNE 23:23:03 55° ESE 23:25:37 10° S
Landsat 7 3.9 23:20:20 10° SSE 23:24:50 52° ENE 23:29:21 10° N
Cosmos 1400 Rocket 3.8 23:22:20 10° SE 23:25:24 24° E 23:28:28 10° NE
Cosmos 540 Rocket 3.7 23:21:36 10° N 23:26:34 47° ENE 23:31:27 10° SE
SJ-12 3.8 23:24:39 10° SSE 23:28:21 51° ENE 23:32:02 10° N
Helios 1A Rocket 3.9 23:31:25 12° NE 23:33:29 19° E 23:35:56 10° SE
DELTA 2 R/B (1) 4.2 23:30:39 10° SW 23:35:52 43° SSE 23:40:20 14° E
Cosmos 1763 Rocket 3.4 23:30:42 10° NNW 23:35:53 71° ENE 23:40:58 10° SSE
Cosmos 304 Rocket 4.2 23:34:19 10° S 23:38:42 40° ESE 23:43:08 10° NNE
Cosmos 371 Rocket 3.7 23:36:38 10° S 23:41:07 41° ESE 23:45:38 10° NNE
Cosmos 1536 Rocket 4.2 23:39:11 10° NNE 23:43:08 31° ENE 23:47:01 10° SE
Okean 2 Rocket 3.6 23:39:12 10° SSE 23:43:14 37° E 23:47:16 10° NNE
Cosmos 1602 2.9 23:53:50 10° N 23:56:53 68° E 23:59:55 10° SSE
